Helicity
218 233 331 381 411 319 276 257 207 169 144 122 89 81 73 83 82 103 105 104 78 114 98 70 79 83 58
180 365 447 341 197 202 199 166 162 155 137 64 35 58 62 71 79 84 102 63 103 147 116 106 96 80 56
337 417 235 194 164 169 150 147 132 89 61 61 60 61 69 88 74 79 57 86 171 172 160 136 129 127 98
212 198 164 194 203 147 110 122 106 121 72 77 75 77 65 64 86 96 103 154 190 187 171 153 119 100 53
256 173 165 192 141 147 140 146 102 94 100 118 110 102 105 101 97 100 114 168 179 177 162 134 110 88 50
301 223 164 156 139 119 134 143 129 124 128 105 91 73 88 101 91 100 111 156 161 144 132 122 102 88 57
174 150 149 150 139 134 130 129 104 108 92 66 109 96 95 84 75 67 58 72 112 129 120 120 110 82 62
184 168 166 167 153 131 121 116 128 115 116 113 114 115 121 118 95 66 64 95 139 144 133 124 128 121 92
158 169 169 164 154 119 118 135 106 123 149 177 152 122 134 167 159 108 96 122 85 87 98 114 109 115 111
127 137 134 132 155 145 128 141 163 142 154 172 165 181 157 175 187 187 179 146 123 104 98 90 86 121 96
122 123 126 132 142 163 171 167 159 171 190 190 177 188 185 185 214 179 170 146 182 135 84 92 90 98 73
126 125 132 145 152 143 136 138 155 149 166 178 196 200 198 204 192 197 162 149 152 132 86 68 71 44 22
122 134 133 117 121 117 135 145 143 145 147 164 177 189 217 222 221 203 210 165 108 106 85 76 92 51 27
115 91 85 97 99 105 95 119 114 114 124 140 162 175 186 201 240 233 218 219 100 77 71 74 64 38 34
110 106 95 94 98 105 115 135 127 137 165 169 167 173 180 176 202 183 200 195 127 89 50 64 43 42 70
97 94 95 97 109 128 141 152 152 162 162 171 184 182 183 168 129 150 163 160 134 98 80 74 47 60 79
80 78 85 103 123 145 166 165 165 164 158 164 170 174 170 168 157 52 151 145 149 125 117 121 89 81 68
Wind_Speed
69 58 45 37 40 42 34 36 38 33 42 44 54 64 68 63 57 60 57 46 41 36 33 36 43 46 51
65 51 54 46 38 42 44 46 42 44 46 44 46 55 59 63 61 58 55 37 33 34 34 40 47 53 54
66 51 47 46 41 43 42 45 44 48 52 48 54 59 59 61 59 60 44 37 32 34 36 43 49 54 55
40 45 44 45 44 42 44 45 45 47 53 52 48 53 59 62 63 65 55 36 32 34 39 44 48 51 55
42 38 49 47 43 36 39 40 48 52 53 52 54 55 58 59 61 59 47 31 31 34 40 47 51 56 60
35 37 41 42 36 36 37 43 56 44 50 54 52 60 54 52 51 49 38 32 33 38 42 47 52 55 58
31 30 31 31 32 38 46 48 47 50 50 61 49 58 56 50 46 43 39 36 35 37 42 46 51 54 59
26 28 30 36 42 42 43 46 48 51 49 56 53 59 60 53 48 45 41 38 36 38 41 46 53 57 61
32 33 35 37 41 41 46 52 56 55 46 53 55 59 56 56 51 48 45 41 43 43 43 48 55 60 60
38 38 41 44 45 46 49 54 57 62 52 47 54 55 62 54 56 48 47 44 45 44 45 49 54 55 53
40 43 43 45 48 50 50 51 55 54 53 52 56 56 56 60 58 57 48 46 46 45 44 48 50 48 46
44 47 48 50 54 55 53 53 52 56 57 55 60 57 61 65 66 59 54 50 47 44 42 48 46 42 34
47 50 53 57 58 58 58 57 59 59 58 58 60 62 62 66 68 63 62 54 46 43 44 45 42 35 30
52 54 56 60 62 61 62 64 64 65 59 58 58 59 65 63 62 64 58 58 48 43 42 41 36 28 28
58 60 61 62 64 62 64 66 68 70 69 64 60 59 60 61 66 63 59 54 48 44 39 38 31 26 39
60 61 64 66 69 67 67 70 74 73 71 65 63 64 62 59 49 57 52 51 44 38 36 36 32 33 45
63 65 67 71 75 74 72 70 68 66 63 60 60 61 66 68 57 41 50 45 40 39 34 32 31 39 50
Wind_Direction
279 279 281 275 281 282 287 293 298 291 296 293 297 296 295 298 303 307 309 314 314 311 314 318 322 325 326
277 276 279 282 277 285 292 297 299 304 303 302 301 298 299 302 304 305 309 301 299 307 312 318 321 322 323
275 281 280 283 289 295 297 301 305 306 306 306 304 304 305 304 306 307 308 305 305 308 312 316 319 320 320
285 285 284 290 299 296 298 304 307 305 303 306 310 310 307 306 307 307 312 310 309 312 314 317 319 320 319
292 292 290 298 300 305 303 308 306 304 306 309 308 308 309 309 311 314 319 316 315 316 318 318 318 319 318
295 296 296 299 302 307 309 308 299 312 308 306 309 306 313 318 321 323 326 323 320 319 319 320 320 320 320
304 306 305 307 308 307 305 305 306 304 306 300 312 310 316 322 326 327 328 325 322 321 321 321 321 322 322
322 318 314 309 306 306 306 305 305 304 307 305 312 311 316 321 324 325 326 326 324 322 321 321 322 322 321
318 319 319 317 314 309 304 301 301 305 308 308 311 313 317 319 320 321 322 322 322 320 321 322 321 321 322
315 314 311 308 310 309 305 303 304 305 310 309 314 316 316 319 318 319 321 320 321 319 320 322 323 323 325
313 312 312 312 311 311 312 309 307 306 312 313 313 313 312 314 316 317 315 316 317 317 320 322 322 324 326
315 312 312 313 313 313 313 313 312 310 310 310 310 309 310 311 311 316 316 316 315 313 316 323 322 322 324
316 314 314 314 315 315 315 315 314 313 312 311 308 307 306 306 309 312 314 317 313 312 314 318 320 322 322
316 316 317 316 315 316 314 314 314 313 315 313 311 310 307 306 305 306 309 310 317 313 312 315 318 318 306
316 315 316 316 315 317 316 315 312 312 313 314 313 311 308 307 305 304 303 304 304 309 309 309 311 308 289
317 317 316 315 315 315 314 312 310 311 311 314 314 313 313 309 302 303 304 304 302 301 302 301 301 291 274
315 315 314 312 311 312 313 313 313 313 314 315 314 312 309 307 312 303 302 301 301 297 295 291 293 282 265